UPS2478 KSDF-KBOS

Flight info

Callsign UPS2478
Flight time 1h 56m
Altitude 35000
Route EEVAA1 SHIPR SITTR Q34 RBV Q419 JFK ROBUC3
Aircraft B763/H-SDE3FGHIM3RWXY/LB1

Departure

Time 2026-05-03 23:05
Airport Louisville Muhammad Ali International Airport (KSDF)

Arrival

Time 2026-05-04 01:02
Airport Boston Logan International Airport (KBOS)
Time Latitude Longitude Altitude Speed Heading
2026-05-03 22:40 38.17432 -85.73917 511 ft 0 kts 20°
2026-05-03 22:54 38.17419 -85.73923 511 ft 2 kts 20°
2026-05-03 22:55 38.17405 -85.73930 511 ft 2 kts 20°
2026-05-03 22:55 38.17397 -85.73933 511 ft 1 kts 20°
2026-05-03 22:55 38.17382 -85.73936 511 ft 2 kts 338°
2026-05-03 22:55 38.17371 -85.73925 511 ft 1 kts 300°
2026-05-03 22:56 38.17369 -85.73918 511 ft 1 kts 289°
2026-05-03 22:56 38.17368 -85.73915 511 ft 0 kts 290°
2026-05-03 22:58 38.17368 -85.73917 511 ft 1 kts 290°
2026-05-03 22:58 38.17385 -85.73975 511 ft 10 kts 290°
2026-05-03 22:58 38.17397 -85.74014 511 ft 0 kts 290°
2026-05-03 22:59 38.17410 -85.74061 511 ft 13 kts 291°
2026-05-03 22:59 38.17481 -85.74206 511 ft 22 kts 326°
2026-05-03 22:59 38.17614 -85.74264 511 ft 18 kts 343°
2026-05-03 22:59 38.17732 -85.74303 511 ft 6 kts 347°
2026-05-03 23:00 38.17743 -85.74309 511 ft 7 kts 339°
2026-05-03 23:00 38.17805 -85.74391 511 ft 15 kts 311°
2026-05-03 23:00 38.17900 -85.74455 511 ft 24 kts 345°
2026-05-03 23:00 38.18098 -85.74519 511 ft 31 kts 344°
2026-05-03 23:01 38.18229 -85.74561 511 ft 16 kts 345°
2026-05-03 23:01 38.18343 -85.74599 511 ft 17 kts 345°
2026-05-03 23:01 38.18433 -85.74631 511 ft 6 kts 338°
2026-05-03 23:01 38.18455 -85.74647 511 ft 4 kts 325°
2026-05-03 23:02 38.18460 -85.74651 511 ft 0 kts 319°
2026-05-03 23:03 38.18478 -85.74696 511 ft 13 kts 278°
2026-05-03 23:03 38.18420 -85.74779 511 ft 13 kts 177°
2026-05-03 23:04 38.18405 -85.74777 511 ft 0 kts 168°
2026-05-03 23:04 38.18404 -85.74777 511 ft 0 kts 168°
2026-05-03 23:05 38.18259 -85.74731 511 ft 52 kts 166°
2026-05-03 23:05 38.17693 -85.74546 511 ft 114 kts 165°
2026-05-03 23:05 38.16748 -85.74219 597 ft 158 kts 169°
2026-05-03 23:05 38.15645 -85.73830 1109 ft 170 kts 171°
2026-05-03 23:06 38.14442 -85.73442 1625 ft 185 kts 174°
2026-05-03 23:06 38.13127 -85.73351 2071 ft 198 kts 185°
2026-05-03 23:06 38.11699 -85.73375 2527 ft 218 kts 184°
2026-05-03 23:06 38.10098 -85.73377 3019 ft 239 kts 183°
2026-05-03 23:07 38.08401 -85.73374 3786 ft 249 kts 183°
2026-05-03 23:07 38.06612 -85.73370 4525 ft 262 kts 184°
2026-05-03 23:07 38.04802 -85.73364 5428 ft 266 kts 184°
2026-05-03 23:07 38.02917 -85.73161 6291 ft 279 kts 167°
2026-05-03 23:08 38.01120 -85.72122 7096 ft 291 kts 156°
2026-05-03 23:08 37.99317 -85.70925 7898 ft 299 kts 157°
2026-05-03 23:08 37.97602 -85.69354 8629 ft 315 kts 133°
2026-05-03 23:08 37.96487 -85.66912 9435 ft 325 kts 105°
2026-05-03 23:09 37.96214 -85.64063 10255 ft 327 kts 86°
2026-05-03 23:09 37.96216 -85.61128 10790 ft 344 kts 88°
2026-05-03 23:09 37.96175 -85.58036 11264 ft 364 kts 88°
2026-05-03 23:09 37.96128 -85.54758 11801 ft 381 kts 88°
2026-05-03 23:10 37.96071 -85.51381 12767 ft 385 kts 87°
2026-05-03 23:10 37.96013 -85.47935 13540 ft 394 kts 87°
2026-05-03 23:10 37.95953 -85.44476 14424 ft 398 kts 87°
2026-05-03 23:10 37.95891 -85.40966 15384 ft 401 kts 87°
2026-05-03 23:11 37.95828 -85.37410 16180 ft 408 kts 88°
2026-05-03 23:11 37.95761 -85.33831 17034 ft 411 kts 88°
2026-05-03 23:11 37.95684 -85.30182 17791 ft 416 kts 91°
2026-05-03 23:11 37.95239 -85.26519 18504 ft 423 kts 101°
2026-05-03 23:12 37.94630 -85.22897 19251 ft 426 kts 99°
2026-05-03 23:12 37.94017 -85.19190 19973 ft 431 kts 100°
2026-05-03 23:12 37.93392 -85.15445 20655 ft 436 kts 100°
2026-05-03 23:12 37.92763 -85.11705 21294 ft 441 kts 100°
2026-05-03 23:13 37.92120 -85.07868 22011 ft 444 kts 99°
2026-05-03 23:13 37.91813 -85.04002 22599 ft 445 kts 85°
2026-05-03 23:13 37.92056 -85.00147 23258 ft 445 kts 79°
2026-05-03 23:13 37.92417 -84.96226 23886 ft 450 kts 80°
2026-05-03 23:14 37.92774 -84.92272 24444 ft 455 kts 80°
2026-05-03 23:14 37.93130 -84.88285 25075 ft 459 kts 79°
2026-05-03 23:14 37.93491 -84.84208 25589 ft 465 kts 80°
2026-05-03 23:14 37.93847 -84.80157 26222 ft 467 kts 80°
2026-05-03 23:15 37.94210 -84.76022 26690 ft 474 kts 79°
2026-05-03 23:15 37.94571 -84.71867 27229 ft 479 kts 79°
2026-05-03 23:15 37.94937 -84.67656 27776 ft 483 kts 79°
2026-05-03 23:15 37.95306 -84.63394 28215 ft 489 kts 79°
2026-05-03 23:16 37.95673 -84.59129 28736 ft 492 kts 79°
2026-05-03 23:16 37.96045 -84.54785 29162 ft 498 kts 80°
2026-05-03 23:16 37.96418 -84.50389 29747 ft 500 kts 80°
2026-05-03 23:16 37.96552 -84.45972 30031 ft 512 kts 89°
2026-05-03 23:17 37.96377 -84.41492 30631 ft 512 kts 89°
2026-05-03 23:17 37.96207 -84.36959 31012 ft 517 kts 90°
2026-05-03 23:17 37.96023 -84.32428 31594 ft 517 kts 90°
2026-05-03 23:17 37.95833 -84.27884 32155 ft 518 kts 91°
2026-05-03 23:18 37.95638 -84.23307 32708 ft 517 kts 91°
2026-05-03 23:18 37.95440 -84.18713 33164 ft 518 kts 91°
2026-05-03 23:18 37.95239 -84.14132 33715 ft 517 kts 90°
2026-05-03 23:18 37.95039 -84.09655 34227 ft 517 kts 91°
2026-05-03 23:19 37.94837 -84.05085 34569 ft 519 kts 91°
2026-05-03 23:19 37.94630 -84.00523 34981 ft 517 kts 91°
2026-05-03 23:19 37.94424 -83.95998 35048 ft 516 kts 91°
2026-05-03 23:20 37.94008 -83.86955 35073 ft 513 kts 91°
2026-05-03 23:20 37.93583 -83.77880 35066 ft 513 kts 91°
2026-05-03 23:21 37.93155 -83.68885 35059 ft 512 kts 91°
2026-05-03 23:21 37.92720 -83.59892 35061 ft 512 kts 92°
2026-05-03 23:22 37.92054 -83.46389 35057 ft 513 kts 92°
2026-05-03 23:22 37.91599 -83.37367 35061 ft 513 kts 92°
2026-05-03 23:23 37.91143 -83.28412 35035 ft 513 kts 92°
2026-05-03 23:23 37.90675 -83.19388 35033 ft 513 kts 92°
2026-05-03 23:24 37.90199 -83.10335 35030 ft 513 kts 93°
2026-05-03 23:24 37.89722 -83.01418 35027 ft 512 kts 92°
2026-05-03 23:25 37.89247 -82.92634 35031 ft 512 kts 93°
2026-05-03 23:25 37.88753 -82.83633 35037 ft 513 kts 92°
2026-05-03 23:26 37.88250 -82.74586 35055 ft 512 kts 93°
2026-05-03 23:26 37.87742 -82.65597 35057 ft 511 kts 92°
2026-05-03 23:27 37.87227 -82.56586 35071 ft 513 kts 93°
2026-05-03 23:27 37.86706 -82.47607 35068 ft 512 kts 93°
2026-05-03 23:28 37.86179 -82.38635 35068 ft 511 kts 93°
2026-05-03 23:28 37.85645 -82.29644 35061 ft 511 kts 94°
2026-05-03 23:29 37.85102 -82.20632 35068 ft 513 kts 94°
2026-05-03 23:29 37.84541 -82.11464 35059 ft 513 kts 94°
2026-05-03 23:30 37.83981 -82.02396 35073 ft 512 kts 94°
2026-05-03 23:30 37.83416 -81.93357 35079 ft 513 kts 94°
2026-05-03 23:31 37.82844 -81.84349 35082 ft 514 kts 94°
2026-05-03 23:31 37.82265 -81.75326 35079 ft 514 kts 94°
2026-05-03 23:32 37.81679 -81.66294 35070 ft 515 kts 94°
2026-05-03 23:32 37.81084 -81.57237 35066 ft 514 kts 94°
2026-05-03 23:33 37.80487 -81.48263 35065 ft 515 kts 94°
2026-05-03 23:33 37.79880 -81.39237 35066 ft 515 kts 94°
2026-05-03 23:34 37.79269 -81.30247 35055 ft 515 kts 95°
2026-05-03 23:34 37.78647 -81.21211 35066 ft 514 kts 95°
2026-05-03 23:35 37.78123 -81.12189 35083 ft 514 kts 88°
2026-05-03 23:35 37.78661 -81.03117 35085 ft 515 kts 83°
2026-05-03 23:36 37.79265 -80.94095 35065 ft 515 kts 84°
2026-05-03 23:36 37.79864 -80.85049 35063 ft 516 kts 83°
2026-05-03 23:37 37.80456 -80.76012 35061 ft 517 kts 83°
2026-05-03 23:37 37.81049 -80.66877 35061 ft 516 kts 83°
2026-05-03 23:38 37.81627 -80.57830 35075 ft 518 kts 84°
2026-05-03 23:38 37.82203 -80.48735 35090 ft 517 kts 84°
2026-05-03 23:39 37.82769 -80.39652 35093 ft 516 kts 84°
2026-05-03 23:39 37.83326 -80.30622 35081 ft 518 kts 84°
2026-05-03 23:40 37.83886 -80.21410 35072 ft 518 kts 84°
2026-05-03 23:40 37.84432 -80.12330 35066 ft 518 kts 84°
2026-05-03 23:41 37.84971 -80.03227 35071 ft 518 kts 84°
2026-05-03 23:41 37.85505 -79.94123 35066 ft 518 kts 84°
2026-05-03 23:42 37.86029 -79.85041 35071 ft 519 kts 84°
2026-05-03 23:42 37.86550 -79.75888 35075 ft 520 kts 84°
2026-05-03 23:43 37.86921 -79.66698 35065 ft 520 kts 86°
2026-05-03 23:43 37.87233 -79.57560 35060 ft 519 kts 86°
2026-05-03 23:44 37.87539 -79.48441 35065 ft 520 kts 86°
2026-05-03 23:44 37.87838 -79.39271 35065 ft 520 kts 86°
2026-05-03 23:45 37.88409 -79.30159 35056 ft 519 kts 79°
2026-05-03 23:45 37.89456 -79.21120 35050 ft 520 kts 79°
2026-05-03 23:46 37.90498 -79.12139 35046 ft 519 kts 79°
2026-05-03 23:46 37.91533 -79.03217 35046 ft 521 kts 79°
2026-05-03 23:47 37.92588 -78.94057 35049 ft 521 kts 80°
2026-05-03 23:47 37.93626 -78.84982 35054 ft 522 kts 79°
2026-05-03 23:48 37.94664 -78.75854 35052 ft 521 kts 80°
2026-05-03 23:48 37.95690 -78.66767 35050 ft 521 kts 79°
2026-05-03 23:49 37.96718 -78.57599 35053 ft 524 kts 80°
2026-05-03 23:49 37.97735 -78.48467 35053 ft 523 kts 79°
2026-05-03 23:50 37.98743 -78.39350 35053 ft 524 kts 80°
2026-05-03 23:50 37.99731 -78.30339 35031 ft 525 kts 80°
2026-05-03 23:51 38.00708 -78.21525 35043 ft 525 kts 77°
2026-05-03 23:51 38.02902 -78.12892 35048 ft 515 kts 57°
2026-05-03 23:52 38.06565 -78.05088 35042 ft 512 kts 52°
2026-05-03 23:52 38.10299 -77.97524 35029 ft 510 kts 51°
2026-05-03 23:53 38.14017 -77.90048 35042 ft 512 kts 52°
2026-05-03 23:53 38.17741 -77.82555 35036 ft 513 kts 52°
2026-05-03 23:54 38.21534 -77.74913 35033 ft 511 kts 51°
2026-05-03 23:54 38.25337 -77.67241 35032 ft 511 kts 51°
2026-05-03 23:55 38.29106 -77.59615 35050 ft 510 kts 51°
2026-05-03 23:55 38.32878 -77.51966 35052 ft 508 kts 51°
2026-05-03 23:56 38.36644 -77.44314 35047 ft 512 kts 52°
2026-05-03 23:56 38.40459 -77.36710 35047 ft 508 kts 46°
2026-05-03 23:57 38.44964 -77.30009 35033 ft 500 kts 41°
2026-05-03 23:57 38.49604 -77.23312 35032 ft 500 kts 41°
2026-05-03 23:58 38.53898 -77.17110 35036 ft 501 kts 41°
2026-05-03 23:59 38.63215 -77.03619 35027 ft 499 kts 41°
2026-05-03 23:59 38.68197 -76.96380 35026 ft 501 kts 41°
2026-05-04 00:00 38.72772 -76.89716 35025 ft 498 kts 41°
2026-05-04 00:00 38.76572 -76.84174 35031 ft 500 kts 41°
2026-05-04 00:01 38.81931 -76.76338 35029 ft 499 kts 41°
2026-05-04 00:01 38.86491 -76.69656 35037 ft 498 kts 41°
2026-05-04 00:02 38.91070 -76.62932 35027 ft 499 kts 41°
2026-05-04 00:02 38.94841 -76.57381 35033 ft 499 kts 41°
2026-05-04 00:03 39.00148 -76.49558 35041 ft 499 kts 41°
2026-05-04 00:03 39.04715 -76.42809 35043 ft 498 kts 41°
2026-05-04 00:04 39.09270 -76.36063 35045 ft 499 kts 41°
2026-05-04 00:04 39.13681 -76.29516 35035 ft 499 kts 42°
2026-05-04 00:05 39.18234 -76.22742 35041 ft 499 kts 42°
2026-05-04 00:05 39.22768 -76.15984 35036 ft 498 kts 42°
2026-05-04 00:06 39.27273 -76.09255 35037 ft 499 kts 42°
2026-05-04 00:06 39.31697 -76.02633 35033 ft 498 kts 42°
2026-05-04 00:07 39.39326 -75.91180 35007 ft 496 kts 42°
2026-05-04 00:08 39.43804 -75.84438 35010 ft 495 kts 43°
2026-05-04 00:08 39.48288 -75.77674 35008 ft 497 kts 43°
2026-05-04 00:09 39.52737 -75.70947 35003 ft 494 kts 43°
2026-05-04 00:09 39.57180 -75.64214 35006 ft 493 kts 43°
2026-05-04 00:10 39.61652 -75.57428 34992 ft 495 kts 43°
2026-05-04 00:10 39.66062 -75.50668 35003 ft 494 kts 46°
2026-05-04 00:11 39.70110 -75.43472 35008 ft 497 kts 47°
2026-05-04 00:11 39.74058 -75.36436 35005 ft 498 kts 48°
2026-05-04 00:12 39.77916 -75.29552 34989 ft 496 kts 49°
2026-05-04 00:12 39.81740 -75.22718 34995 ft 495 kts 49°
2026-05-04 00:13 39.89625 -75.08581 34991 ft 495 kts 48°
2026-05-04 00:14 39.93620 -75.01396 34992 ft 495 kts 49°
2026-05-04 00:14 39.97523 -74.94303 34986 ft 496 kts 51°
2026-05-04 00:15 40.01284 -74.86913 34981 ft 495 kts 51°
2026-05-04 00:15 40.05070 -74.79479 34984 ft 496 kts 51°
2026-05-04 00:16 40.08816 -74.72110 34979 ft 495 kts 51°
2026-05-04 00:16 40.12138 -74.65558 34980 ft 495 kts 51°
2026-05-04 00:17 40.16117 -74.57698 34993 ft 494 kts 51°
2026-05-04 00:17 40.20049 -74.50422 34995 ft 486 kts 41°
2026-05-04 00:18 40.24955 -74.44619 34984 ft 480 kts 33°
2026-05-04 00:18 40.30040 -74.39105 34981 ft 479 kts 33°
2026-05-04 00:19 40.34750 -74.34038 34977 ft 478 kts 33°
2026-05-04 00:19 40.39668 -74.28754 34967 ft 478 kts 33°
2026-05-04 00:20 40.44675 -74.23372 34971 ft 479 kts 33°
2026-05-04 00:20 40.49774 -74.17879 34950 ft 478 kts 33°
2026-05-04 00:21 40.54055 -74.11832 34961 ft 479 kts 52°
2026-05-04 00:21 40.55759 -74.07873 34947 ft 471 kts 63°
2026-05-04 00:21 40.56900 -74.03939 34816 ft 463 kts 68°
2026-05-04 00:22 40.58174 -73.98855 34153 ft 467 kts 69°
2026-05-04 00:22 40.58832 -73.96149 33752 ft 470 kts 69°
2026-05-04 00:22 40.61067 -73.86712 32590 ft 480 kts 70°
2026-05-04 00:23 40.62046 -73.82587 32127 ft 483 kts 67°
2026-05-04 00:23 40.63364 -73.78552 31564 ft 484 kts 57°
2026-05-04 00:23 40.65161 -73.74844 31146 ft 477 kts 47°
2026-05-04 00:23 40.67274 -73.71541 30621 ft 472 kts 43°
2026-05-04 00:24 40.69390 -73.68372 29910 ft 473 kts 43°
2026-05-04 00:24 40.71614 -73.65071 28752 ft 483 kts 43°
2026-05-04 00:24 40.73832 -73.61797 27895 ft 483 kts 43°
2026-05-04 00:24 40.76009 -73.58585 27358 ft 478 kts 43°
2026-05-04 00:25 40.78217 -73.55332 26922 ft 469 kts 42°
2026-05-04 00:25 40.80348 -73.52190 26951 ft 460 kts 42°
2026-05-04 00:25 40.82408 -73.49165 26951 ft 469 kts 42°
2026-05-04 00:25 40.84548 -73.46019 26949 ft 479 kts 42°
2026-05-04 00:26 40.86678 -73.42878 26946 ft 479 kts 42°
2026-05-04 00:26 40.88897 -73.39600 26942 ft 474 kts 42°
2026-05-04 00:26 40.91085 -73.36366 26947 ft 473 kts 42°
2026-05-04 00:26 40.93088 -73.33405 26937 ft 474 kts 43°
2026-05-04 00:27 40.95265 -73.30185 26938 ft 476 kts 43°
2026-05-04 00:27 40.97454 -73.26940 26934 ft 475 kts 43°
2026-05-04 00:27 40.99655 -73.23676 26933 ft 474 kts 43°
2026-05-04 00:27 41.01854 -73.20411 26926 ft 472 kts 43°
2026-05-04 00:28 41.04040 -73.17162 26930 ft 472 kts 43°
2026-05-04 00:28 41.06244 -73.13882 26928 ft 473 kts 43°
2026-05-04 00:28 41.08413 -73.10651 26924 ft 474 kts 43°
2026-05-04 00:28 41.10624 -73.07355 26920 ft 473 kts 43°
2026-05-04 00:29 41.12737 -73.04200 26921 ft 473 kts 43°
2026-05-04 00:29 41.14846 -73.01048 26917 ft 472 kts 43°
2026-05-04 00:29 41.16983 -72.97851 26918 ft 472 kts 43°
2026-05-04 00:29 41.19039 -72.94771 26918 ft 473 kts 43°
2026-05-04 00:30 41.20928 -72.91541 26912 ft 469 kts 52°
2026-05-04 00:30 41.22344 -72.88237 26914 ft 457 kts 58°
2026-05-04 00:30 41.23802 -72.84510 26904 ft 445 kts 57°
2026-05-04 00:30 41.25213 -72.80881 26921 ft 445 kts 58°
2026-05-04 00:31 41.26629 -72.77218 26924 ft 452 kts 58°
2026-05-04 00:31 41.28067 -72.73471 26920 ft 455 kts 58°
2026-05-04 00:31 41.29509 -72.69697 26914 ft 454 kts 58°
2026-05-04 00:31 41.30923 -72.65990 26921 ft 452 kts 58°
2026-05-04 00:32 41.32325 -72.62306 26919 ft 452 kts 58°
2026-05-04 00:32 41.33716 -72.58649 26920 ft 452 kts 58°
2026-05-04 00:32 41.35139 -72.54899 26916 ft 452 kts 58°
2026-05-04 00:32 41.36541 -72.51203 26919 ft 453 kts 58°
2026-05-04 00:33 41.37954 -72.47469 26918 ft 453 kts 58°
2026-05-04 00:33 41.40777 -72.39997 26915 ft 453 kts 58°
2026-05-04 00:33 41.42183 -72.36266 26905 ft 446 kts 58°
2026-05-04 00:34 41.43396 -72.33040 26894 ft 435 kts 58°
2026-05-04 00:34 41.44711 -72.29540 26896 ft 426 kts 58°
2026-05-04 00:34 41.46046 -72.25992 26905 ft 427 kts 58°
2026-05-04 00:34 41.47402 -72.22392 26730 ft 438 kts 58°
2026-05-04 00:35 41.48763 -72.18723 26308 ft 444 kts 59°
2026-05-04 00:35 41.50097 -72.15076 25780 ft 441 kts 59°
2026-05-04 00:35 41.51448 -72.11380 25252 ft 437 kts 59°
2026-05-04 00:35 41.52766 -72.07771 24786 ft 433 kts 59°
2026-05-04 00:36 41.54065 -72.04211 24370 ft 427 kts 59°
2026-05-04 00:36 41.55355 -72.00671 24030 ft 419 kts 59°
2026-05-04 00:36 41.56494 -71.97157 23694 ft 416 kts 63°
2026-05-04 00:36 41.57547 -71.93580 23179 ft 413 kts 63°
2026-05-04 00:37 41.58608 -71.90015 22719 ft 410 kts 63°
2026-05-04 00:37 41.59651 -71.86511 22356 ft 404 kts 63°
2026-05-04 00:37 41.60688 -71.83005 21945 ft 403 kts 63°
2026-05-04 00:37 41.61710 -71.79544 21526 ft 401 kts 63°
2026-05-04 00:38 41.62726 -71.76100 21136 ft 396 kts 63°
2026-05-04 00:38 41.63730 -71.72693 20758 ft 395 kts 63°
2026-05-04 00:38 41.64736 -71.69279 20374 ft 393 kts 63°
2026-05-04 00:38 41.65733 -71.65886 20017 ft 391 kts 63°
2026-05-04 00:39 41.66727 -71.62501 19625 ft 389 kts 63°
2026-05-04 00:39 41.67700 -71.59178 19478 ft 377 kts 63°
2026-05-04 00:39 41.68646 -71.55942 19275 ft 372 kts 63°
2026-05-04 00:39 41.69583 -71.52749 18828 ft 371 kts 62°
2026-05-04 00:40 41.70523 -71.49529 18444 ft 368 kts 62°
2026-05-04 00:40 41.71448 -71.46358 18185 ft 363 kts 62°
2026-05-04 00:40 41.72391 -71.43215 17693 ft 362 kts 58°
2026-05-04 00:40 41.73577 -71.40312 17359 ft 353 kts 52°
2026-05-04 00:41 41.74807 -71.37481 17015 ft 350 kts 53°
2026-05-04 00:41 41.75898 -71.34938 16680 ft 347 kts 53°
2026-05-04 00:41 41.77098 -71.32137 16322 ft 346 kts 54°
2026-05-04 00:41 41.78285 -71.29359 15967 ft 342 kts 53°
2026-05-04 00:42 41.79471 -71.26579 15636 ft 341 kts 53°
2026-05-04 00:42 41.80644 -71.23827 15316 ft 340 kts 53°
2026-05-04 00:42 41.81811 -71.21086 15009 ft 337 kts 53°
2026-05-04 00:42 41.82973 -71.18355 14709 ft 335 kts 53°
2026-05-04 00:43 41.84132 -71.15630 14403 ft 334 kts 53°
2026-05-04 00:43 41.85274 -71.12936 14153 ft 329 kts 53°
2026-05-04 00:43 41.86421 -71.10272 13752 ft 328 kts 53°
2026-05-04 00:43 41.87556 -71.07650 13421 ft 324 kts 53°
2026-05-04 00:44 41.88676 -71.05058 13106 ft 320 kts 53°
2026-05-04 00:44 41.89785 -71.02489 12790 ft 317 kts 53°
2026-05-04 00:44 41.90884 -70.99941 12485 ft 313 kts 53°
2026-05-04 00:44 41.91977 -70.97405 12186 ft 310 kts 52°
2026-05-04 00:45 41.93057 -70.94899 11903 ft 308 kts 52°
2026-05-04 00:45 41.94123 -70.92421 11626 ft 306 kts 52°
2026-05-04 00:45 41.95179 -70.89967 11351 ft 305 kts 52°
2026-05-04 00:45 41.96236 -70.87505 11062 ft 303 kts 53°
2026-05-04 00:46 41.97285 -70.85063 10776 ft 302 kts 53°
2026-05-04 00:46 41.98340 -70.82604 10484 ft 300 kts 52°
2026-05-04 00:46 41.99367 -70.80204 10198 ft 297 kts 52°
2026-05-04 00:46 42.00394 -70.77804 9936 ft 291 kts 52°
2026-05-04 00:47 42.01488 -70.75610 9863 ft 277 kts 41°
2026-05-04 00:47 42.02799 -70.73667 9575 ft 280 kts 40°
2026-05-04 00:47 42.04091 -70.71742 9303 ft 278 kts 40°
2026-05-04 00:47 42.05383 -70.69807 9032 ft 275 kts 40°
2026-05-04 00:48 42.06652 -70.67907 8761 ft 273 kts 40°
2026-05-04 00:48 42.07927 -70.65997 8536 ft 271 kts 40°
2026-05-04 00:48 42.09174 -70.64128 8293 ft 271 kts 41°
2026-05-04 00:48 42.10506 -70.62376 8023 ft 259 kts 25°
2026-05-04 00:49 42.12124 -70.61553 7801 ft 241 kts
2026-05-04 00:49 42.13763 -70.61136 7551 ft 237 kts
2026-05-04 00:49 42.15370 -70.60733 7311 ft 233 kts
2026-05-04 00:49 42.16942 -70.60365 7094 ft 229 kts
2026-05-04 00:50 42.18499 -70.60011 6896 ft 224 kts
2026-05-04 00:50 42.20045 -70.59670 6749 ft 224 kts
2026-05-04 00:50 42.21562 -70.59339 6598 ft 217 kts
2026-05-04 00:50 42.23011 -70.59023 6452 ft 209 kts
2026-05-04 00:51 42.24444 -70.58714 6264 ft 203 kts
2026-05-04 00:51 42.25814 -70.58421 6090 ft 199 kts
2026-05-04 00:51 42.27169 -70.58129 5909 ft 193 kts
2026-05-04 00:51 42.28480 -70.57848 5726 ft 188 kts
2026-05-04 00:52 42.29756 -70.57574 5560 ft 182 kts
2026-05-04 00:52 42.30984 -70.57311 5398 ft 177 kts
2026-05-04 00:52 42.32193 -70.57053 5251 ft 174 kts
2026-05-04 00:52 42.33379 -70.56798 5106 ft 168 kts
2026-05-04 00:53 42.34512 -70.56552 4977 ft 163 kts
2026-05-04 00:53 42.35643 -70.56290 4708 ft 167 kts
2026-05-04 00:53 42.36772 -70.56027 4436 ft 164 kts
2026-05-04 00:53 42.37835 -70.56282 4162 ft 151 kts 319°
2026-05-04 00:54 42.38302 -70.57475 4069 ft 151 kts 274°
2026-05-04 00:54 42.38090 -70.58928 4035 ft 162 kts 265°
2026-05-04 00:54 42.37978 -70.60436 3909 ft 161 kts 274°
2026-05-04 00:54 42.37994 -70.61927 3767 ft 156 kts 278°
2026-05-04 00:55 42.38077 -70.63374 3651 ft 152 kts 281°
2026-05-04 00:55 42.38206 -70.64753 3519 ft 145 kts 283°
2026-05-04 00:55 42.38362 -70.66083 3425 ft 140 kts 284°
2026-05-04 00:55 42.38539 -70.67390 3380 ft 142 kts 285°
2026-05-04 00:56 42.38734 -70.68718 3332 ft 145 kts 285°
2026-05-04 00:56 42.38937 -70.70029 3269 ft 144 kts 285°
2026-05-04 00:56 42.39151 -70.71365 3207 ft 143 kts 286°
2026-05-04 00:56 42.39365 -70.72671 3149 ft 143 kts 286°
2026-05-04 00:57 42.39590 -70.73981 3093 ft 143 kts 287°
2026-05-04 00:57 42.39829 -70.75273 3054 ft 141 kts 287°
2026-05-04 00:57 42.39913 -70.76615 2913 ft 148 kts 265°
2026-05-04 00:57 42.39667 -70.77979 2786 ft 149 kts 263°
2026-05-04 00:58 42.39436 -70.79316 2632 ft 140 kts 264°
2026-05-04 00:58 42.39222 -70.80544 2437 ft 129 kts 264°
2026-05-04 00:58 42.39020 -70.81713 2304 ft 126 kts 264°
2026-05-04 00:58 42.38818 -70.82896 2239 ft 133 kts 264°
2026-05-04 00:59 42.38605 -70.84129 2094 ft 135 kts 264°
2026-05-04 00:59 42.38395 -70.85310 1993 ft 128 kts 264°
2026-05-04 00:59 42.38187 -70.86507 1844 ft 131 kts 264°
2026-05-04 00:59 42.37977 -70.87704 1677 ft 130 kts 263°
2026-05-04 01:00 42.37770 -70.88885 1503 ft 130 kts 262°
2026-05-04 01:00 42.37559 -70.90083 1337 ft 130 kts 262°
2026-05-04 01:00 42.37347 -70.91286 1169 ft 131 kts 262°
2026-05-04 01:00 42.37136 -70.92489 990 ft 132 kts 261°
2026-05-04 01:01 42.36920 -70.93706 810 ft 133 kts 262°
2026-05-04 01:01 42.36704 -70.94932 632 ft 133 kts 260°
2026-05-04 01:01 42.36489 -70.96140 447 ft 133 kts 260°
2026-05-04 01:01 42.36270 -70.97377 268 ft 136 kts 259°
2026-05-04 01:02 42.36048 -70.98625 82 ft 137 kts 259°
2026-05-04 01:02 42.35841 -70.99827 17 ft 115 kts 253°
2026-05-04 01:02 42.35708 -71.00535 20 ft 41 kts 267°
2026-05-04 01:02 42.35659 -71.00838 22 ft 21 kts 257°
2026-05-04 01:03 42.35633 -71.00976 22 ft 5 kts 263°
2026-05-04 01:03 42.35637 -71.01048 22 ft 10 kts 281°
2026-05-04 01:03 42.35651 -71.01110 23 ft 0 kts 291°
2026-05-04 01:04 42.35652 -71.01114 23 ft 0 kts 291°
2026-05-04 01:04 42.35655 -71.01125 23 ft 3 kts 293°
2026-05-04 01:04 42.35682 -71.01185 23 ft 11 kts 304°
2026-05-04 01:05 42.35725 -71.01282 23 ft 12 kts 295°
2026-05-04 01:05 42.35762 -71.01402 23 ft 16 kts 290°
2026-05-04 01:05 42.35805 -71.01569 23 ft 19 kts 288°
2026-05-04 01:05 42.35839 -71.01751 22 ft 19 kts 283°
2026-05-04 01:06 42.35851 -71.01844 22 ft 8 kts 266°
2026-05-04 01:06 42.35833 -71.01902 22 ft 3 kts 227°
2026-05-04 01:06 42.35825 -71.01911 22 ft 0 kts 219°
2026-05-04 01:06 42.35812 -71.01925 22 ft 2 kts 217°
2026-05-04 01:07 42.35810 -71.01926 22 ft 0 kts 216°